Location: Berkeley
(37.8716°N, 122.2727°W)
Time: 04:59:26
(UTC-08:00)

Tiangong 2 - Visible Passes

Search period start: 18 December 2017 00:00
Search period end: 28 December 2017 00:00
Orbit: 387 x 389 km, 42.8° (Epoch: 18 December)

Date Brightness Start Highest point End Pass type
(mag) Time Alt. Az. Time Alt. Az. Time Alt. Az.
19 Dec 3.2 18:23:15 10° S 18:24:58 16° SSE 18:24:58 16° SSE visible
20 Dec 3.2 19:00:16 10° SW 19:01:47 25° SW 19:01:47 25° SW visible
21 Dec 2.3 18:02:11 10° SSW 18:05:01 30° SSE 18:06:13 23° ESE visible
22 Dec 1.3 18:40:02 10° WSW 18:42:53 67° W 18:42:53 67° W visible
23 Dec 1.3 17:41:38 10° SW 17:44:46 58° SSE 17:47:12 15° ENE visible
23 Dec 4.1 19:18:40 10° W 19:19:29 16° WNW 19:19:29 16° WNW visible
24 Dec 1.5 18:19:59 10° W 18:23:06 51° NNW 18:23:46 41° NNE visible
25 Dec 3.2 18:58:43 10° WNW 19:00:18 23° NW 19:00:18 23° NW visible
26 Dec 2.0 18:00:00 10° W 18:02:59 37° N 18:04:32 22° NE visible
27 Dec 2.4 18:38:40 10° WNW 18:41:04 30° NNW 18:41:04 30° NNW visible
